Sault Ste. Marie International Airport

Airport
ICAO code: 
CYAM
IATA Code: 
YAM
Summary
ICAO Region: 
NAM
Territory: 
Location: 
Sault Ste. Marie, Ontario,
Serving: 
Sault Ste. Marie
Elevation: 
630 ft
Coordinates: 
Aerial View: 
46° 29' 6" N, 84° 30' 33.998" W
Airport BS: 
Bird Strike
Airport CFIT: 
Altimeter Temperature Error Correction
Airport GND: 
Aircraft Ground De/Anti Icing
Metar
Observation
CYAM 170000Z 12005KT 10SM -SHSN OVC024 M05/M10 A2975 RMK CU8 SLP090
Station
Sault Ste Marie, Ont.
Date/Time
2022-01-17 00:00:00
Wind direction
120°
Wind speed
05 kts
Lowest cloud amount
overcast
Temperature
-5°C
Dew point
-10°C
Humidity
67%
Weather condition
light showers snow

Description

Regional airport located 8 miles west of Sault Ste. Marie, Ontario, Canada.

Climatology

Humid Continental climate (Köppen climate classification Dfb) - Variable weather patterns and a large seasonal temperature variance. Summers are often warm and humid with frequent thunderstorms and winters can be very cold with frequent snowfall and persistent snow cover.

Runways

Designator Length Width Surface Rops
4/22 1829 61 ASP Yes/Yes
12/30 1829 61 ASP Yes/Yes
Airport map: 
Aerial View: 

SKYbrary Partners:

Safety knowledge contributed by: